HODOYOSHI-4

Last updated on Thu Oct 30 2025 00:02:31 GMT+0000 (Coordinated Universal Time)

1 40011U 14033B 25302.47663281 .00002478 00000+0 27939-3 0 9999 2 40011 97.5453 133.5424 0023852 353.8465 6.2455 14.87246712614507
UTC large
Height (km)
Speed (km/s)
/
Latitude / Longitude
Inclination (degrees)
Orbital Period (minutes)
Azimuth
Elevation
Range (km)
Doppler Factor

Next 0 passes for location: London (51.5072 / 0.1276)

Sorry there are no passes over London.